CW8468 Weather Reports


Display with metric or nautical units.
time (UTC)temp
F
wind
direction
speed
MPH
gust
MPH
rain 1hr
in
rain 24hr
in
rain mn
in
humidity
%
barometer
mb
20260503200026 81 75 3.0 7.0 0.00 0.00 0.00 38 1019.4
20260503195002 79 94 2.0 7.0 0.00 0.00 0.00 38 1019.5
20260503194516 80 133 2.0 7.0 0.00 0.00 0.00 36 1019.6
20260503194001 81 124 2.0 7.0 0.00 0.00 0.00 39 1019.6
20260503193501 80 89 2.0 4.0 0.00 0.00 0.00 40 1019.8
20260503193025 79 101 1.0 4.0 0.00 0.00 0.00 35 1019.8
20260503192501 80 98 2.0 6.0 0.00 0.00 0.00 36 1019.9
20260503192002 80 67 3.0 6.0 0.00 0.00 0.00 35 1020.0
20260503191516 81 50 2.0 7.0 0.00 0.00 0.00 39 1020.1
20260503191002 81 119 2.0 6.0 0.00 0.00 0.00 39 1020.2
20260503190501 81 179 2.0 6.0 0.00 0.00 0.00 39 1020.2
20260503190028 81 117 2.0 6.0 0.00 0.00 0.00 39 1020.2
20260503185500 79 62 3.0 7.0 0.00 0.00 0.00 36 1020.3
20260503184516 80 210 1.0 4.0 0.00 0.00 0.00 40 1020.4
20260503184002 80 174 2.0 6.0 0.00 0.00 0.00 35 1020.5
20260503183500 81 46 3.0 10.0 0.00 0.00 0.00 37 1020.5
20260503183025 80 28 2.0 8.0 0.00 0.00 0.00 39 1020.6
20260503182500 79 56 2.0 5.0 0.00 0.00 0.00 37 1020.6
20260503182002 79 237 3.0 6.0 0.00 0.00 0.00 36 1020.8
20260503181517 80 19 3.0 10.0 0.00 0.00 0.00 38 1020.9
20260503181003 79 101 2.0 8.0 0.00 0.00 0.00 43 1020.9
20260503180027 79 69 2.0 10.0 0.00 0.00 0.00 38 1021.1
20260503174514 79 46 2.0 8.0 0.00 0.00 0.00 41 1021.5
20260503174000 78 79 2.0 8.0 0.00 0.00 0.00 46 1021.6
20260503173501 78 135 2.0 6.0 0.00 0.00 0.00 42 1021.6
20260503172501 78 181 1.0 3.0 0.00 0.00 0.00 40 1021.8
20260503171001 76 237 2.0 9.0 0.00 0.00 0.00 43 1022.0
20260503170459 77 266 2.0 9.0 0.00 0.00 0.00 42 1022.0
20260503151001 72 277 2.0 7.0 0.00 0.00 0.00 54 1022.0
20260503150459 71 192 3.0 7.0 0.00 0.00 0.00 51 1022.0
20260503131002 60 348 0.0 0.0 0.00 0.00 0.00 90 1021.4
20260503130501 59 348 0.0 0.0 0.00 0.00 0.00 91 1021.4
20260503110501 54 348 0.0 0.0 0.00 0.00 0.00 90 1020.5
20260503090500 55 348 0.0 0.0 0.00 0.00 0.00 89 1019.9
20260503081515 56 348 0.0 0.0 0.00 0.00 0.00 88 1020.0
20260503081002 56 348 0.0 0.0 0.00 0.00 0.00 88 1020.1
20260503080501 56 348 0.0 0.0 0.00 0.00 0.00 88 1020.1
20260503072459 57 348 0.0 0.0 0.00 0.00 0.00 87 1020.1
20260503072001 57 348 0.0 0.0 0.00 0.00 0.00 87 1020.1
20260503071514 57 348 0.0 0.0 0.00 0.00 0.00 87 1020.1
20260503071000 57 348 0.0 0.0 0.00 0.00 0.00 86 1020.1
20260503070459 57 348 0.0 0.0 0.00 0.00 0.00 87 1020.2
20260503054959 58 348 0.0 0.0 0.00 0.00 0.00 84 1020.2
20260503054513 58 348 0.0 0.0 0.00 0.00 0.00 84 1020.3
20260503053459 59 348 0.0 0.0 0.00 0.00 0.00 83 1020.2
20260503053025 59 348 0.0 0.0 0.00 0.00 0.00 83 1020.1
20260503052458 59 348 0.0 1.0 0.00 0.00 0.00 82 1020.0
20260503051959 59 348 0.0 1.0 0.00 0.00 0.00 82 1020.0
20260503051513 59 348 0.0 0.0 0.00 0.00 0.00 82 1020.1
20260503050959 59 348 0.0 0.0 0.00 0.00 0.00 81 1020.0
20260503050458 59 348 0.0 0.0 0.00 0.00 0.00 81 1020.1
20260503050027 60 348 0.0 0.0 0.00 0.00 0.00 81 1020.1
20260503045504 60 348 0.0 0.0 0.00 0.00 0.00 80 1019.9
20260503045005 60 348 0.0 0.0 0.00 0.00 0.00 80 1019.9
20260503044519 60 348 0.0 0.0 0.00 0.00 0.00 80 1019.9
20260503044005 60 348 0.0 0.0 0.00 0.00 0.00 80 1019.9
20260503043505 60 348 0.0 0.0 0.00 0.00 0.00 79 1019.9
20260503043030 60 348 0.0 0.0 0.00 0.00 0.00 79 1019.8
20260503042504 60 348 0.0 0.0 0.00 0.00 0.00 79 1019.8
20260503041004 61 348 0.0 1.0 0.00 0.00 0.00 78 1019.8
20260503040505 61 348 0.0 0.0 0.00 0.00 0.00 78 1019.9
20260503040027 61 348 0.0 0.0 0.00 0.00 0.00 77 1019.9
20260503035503 61 348 0.0 0.0 0.00 0.00 0.00 77 1019.8
20260503034518 62 348 0.0 0.0 0.00 0.00 0.00 76 1019.7
20260503034005 62 348 0.0 0.0 0.00 0.00 0.00 75 1019.6
20260503033027 62 348 0.0 0.0 0.00 0.00 0.00 74 1019.4
20260503032503 62 348 0.0 0.0 0.00 0.00 0.00 74 1019.4
20260503031518 63 348 0.0 0.0 0.00 0.00 0.00 74 1019.3
20260503031004 63 348 0.0 0.0 0.00 0.00 0.00 73 1019.2
20260503030504 63 348 0.0 0.0 0.00 0.00 0.00 72 1019.2
20260503030029 63 348 0.0 0.0 0.00 0.00 0.00 72 1019.2
20260503025503 63 348 0.0 0.0 0.00 0.07 0.00 71 1019.2
20260503025004 64 348 0.0 0.0 0.00 0.07 0.00 70 1019.3
20260503024519 64 348 0.0 0.0 0.00 0.07 0.00 70 1019.2
20260503024005 64 348 0.0 0.0 0.00 0.07 0.00 69 1019.2
20260503023504 65 348 0.0 0.0 0.00 0.07 0.00 70 1019.2
20260503023027 65 348 0.0 0.0 0.00 0.07 0.00 69 1019.1
20260503022503 65 348 0.0 0.0 0.00 0.07 0.00 68 1019.1
20260503022005 65 348 0.0 1.0 0.00 0.07 0.00 68 1019.0
20260503021519 66 348 0.0 1.0 0.00 0.07 0.00 67 1018.9
20260503021005 65 348 0.0 1.0 0.00 0.07 0.00 67 1018.9
20260503020503 65 348 0.0 0.0 0.00 0.07 0.00 68 1018.9
20260503020031 65 348 0.0 0.0 0.00 0.21 0.00 67 1018.8
20260503015503 66 348 0.0 0.0 0.00 0.21 0.00 65 1018.8
20260503015004 66 348 0.0 0.0 0.00 0.21 0.00 64 1018.6
20260503014004 67 348 0.0 0.0 0.00 0.21 0.00 62 1018.5
20260503013027 68 348 0.0 0.0 0.00 0.21 0.00 60 1018.4
20260503012503 69 348 0.0 1.0 0.00 0.21 0.00 57 1018.3
20260503012004 69 348 0.0 2.0 0.00 0.21 0.00 56 1018.2
20260503011519 70 348 0.0 2.0 0.00 0.21 0.00 56 1018.2
20260503011004 70 343 1.0 2.0 0.00 0.21 0.00 55 1018.1
20260503010027 71 320 1.0 5.0 0.00 0.29 0.00 53 1018.2
20260503005504 71 353 1.0 5.0 0.00 0.29 0.00 53 1018.1
20260503005003 71 318 2.0 6.0 0.00 0.29 0.00 52 1018.0
20260503004518 72 332 2.0 6.0 0.00 0.29 0.00 51 1017.8
20260503004003 72 358 2.0 6.0 0.00 0.29 0.00 51 1017.8
20260503003502 72 333 2.0 6.0 0.00 0.29 0.00 51 1017.8
20260503003026 72 2 2.0 5.0 0.00 0.29 0.00 51 1017.7
20260503002502 73 342 2.0 5.0 0.00 0.29 0.00 50 1017.6
20260503002004 73 33 2.0 5.0 0.00 0.29 0.00 49 1017.6
20260503001518 73 296 3.0 6.0 0.00 0.29 0.00 49 1017.6
20260503000503 74 56 3.0 8.0 0.00 0.29 0.00 46 1017.6
20260503000026 74 4 3.0 8.0 0.00 0.52 0.00 47 1017.5
20260502235502 75 358 3.0 5.0 0.00 0.52 0.00 47 1017.4
20260502235004 75 341 3.0 5.0 0.00 0.52 0.00 46 1017.4
20260502234518 75 10 3.0 8.0 0.00 0.52 0.00 46 1017.4
20260502234004 75 2 4.0 10.0 0.00 0.52 0.00 46 1017.3
20260502233502 75 358 5.0 10.0 0.00 0.52 0.00 46 1017.4
20260502232004 76 318 3.0 6.0 0.00 0.52 0.00 45 1017.4
20260502231517 76 358 3.0 8.0 0.00 0.52 0.00 45 1017.4
20260502230502 77 51 4.0 10.0 0.00 0.52 0.00 44 1017.3
20260502230029 77 3 4.0 10.0 0.00 0.52 0.00 45 1017.3
20260502225504 77 358 4.0 10.0 0.00 0.59 0.00 44 1017.4
20260502224004 77 16 5.0 15.0 0.00 0.59 0.00 44 1017.2
20260502223504 77 353 4.0 15.0 0.00 0.59 0.00 44 1017.2
20260502223027 77 348 3.0 9.0 0.00 0.59 0.00 46 1017.2
20260502222503 78 19 4.0 10.0 0.00 0.59 0.00 45 1017.4
20260502222004 77 27 4.0 12.0 0.00 0.59 0.00 45 1017.4
20260502221518 78 341 4.0 12.0 0.00 0.59 0.00 47 1017.5
20260502221005 77 15 5.0 12.0 0.00 0.59 0.00 45 1017.5
20260502220503 77 310 5.0 12.0 0.00 0.59 0.00 43 1017.5
20260502220026 78 310 4.0 10.0 0.00 0.62 0.00 46 1017.5
20260502215502 78 4 3.0 9.0 0.00 0.62 0.00 43 1017.5
20260502215004 77 353 3.0 9.0 0.00 0.62 0.00 46 1017.5
20260502214517 77 3 3.0 11.0 0.00 0.62 0.00 46 1017.5
20260502214003 78 41 4.0 11.0 0.00 0.62 0.00 45 1017.6
20260502213502 78 9 4.0 9.0 0.00 0.62 0.00 46 1017.6
20260502213024 77 66 4.0 10.0 0.00 0.62 0.00 46 1017.6
20260502212502 77 22 4.0 10.0 0.00 0.62 0.00 47 1017.7
20260502212004 78 2 3.0 10.0 0.00 0.62 0.00 46 1017.7
20260502211003 77 353 4.0 10.0 0.00 0.62 0.00 45 1017.8
20260502210503 78 8 5.0 10.0 0.00 0.62 0.00 43 1017.9
20260502210027 77 29 5.0 11.0 0.00 0.62 0.00 46 1017.9
20260502205502 78 29 4.0 15.0 0.00 0.77 0.00 44 1017.9
20260502205002 77 332 4.0 15.0 0.00 0.77 0.00 46 1018.0
20260502204518 77 358 3.0 9.0 0.00 0.77 0.00 44 1018.0
20260502204003 77 62 4.0 10.0 0.00 0.77 0.00 45 1017.9
20260502203026 77 27 3.0 13.0 0.00 0.77 0.00 46 1018.0
20260502202003 77 33 4.0 11.0 0.00 0.77 0.00 43 1018.2
20260502201518 77 344 4.0 11.0 0.00 0.77 0.00 47 1018.2
20260502201003 77 45 3.0 10.0 0.00 0.77 0.00 47 1018.2
20260502200502 77 331 3.0 10.0 0.00 0.77 0.00 51 1018.3